Regional Weather Roundup
Issued by NWS State College, PA

Home | Current Version | Previous Version | Graphics & Text | Print | Product List | Glossary Off
Versions: 1 2 3 4 5 6 7 8 9 10 11 12 13 14 15 16 17 18 19 20 21 22 23 24 25 26 27 28 29 30 31 32 33 34 35 36 37 38 39 40 41 42 43 44 45 46 47 48 49 50

000
ASUS41 KCTP 301410
RWRCTP

REGIONAL WEATHER ROUNDUP
NATIONAL WEATHER SERVICE STATE COLLEGE PA
1000 AM EDT WED JUL 30 2014

Note: "fair" indicates few or no clouds below 12,000 feet with no
significant weather and/or obstructions to visibility.

* = STATION THAT DOES NOT REPORT PRECIPITATION /E.G. RAIN...SNOW...ETC/
    THUNDER OR FOG.

PAZ002>004-007>009-013>016-020>023-029>032-301500-
WESTERN PENNSYLVANIA

CITY           SKY/WX    TMP DP  RH WIND       PRES   REMARKS
ERIE           PTSUNNY   62  56  80 S8        30.00F
MEADVILLE      PTSUNNY   62  55  77 W9        30.03F
FRANKLIN*      PTSUNNY   61  54  77 SW7       30.05F
NEW CASTLE       N/A     66  56  70 CALM      30.06R
BEAVER COUNTY  PTSUNNY   63  54  72 SW7       30.06R
BUTLER*        CLOUDY    63  54  72 SW9       30.08R
PITTSBURGH INT PTSUNNY   65  54  67 W6        30.06R
PITTSBURGH     PTSUNNY   62  53  72 S8        30.07R
INDIANA*       CLOUDY    61  54  77 SW7       30.11S
LATROBE        PTSUNNY   63  55  77 SW12      30.09R
WASHINGTON CO* CLOUDY    63  54  72 S7        30.08S
$$

PAZ004>006-010>012-017>019-024>028-033>037-041-042-045-046-049>053-301500-
CENTRAL PENNSYLVANIA

CITY           SKY/WX    TMP DP  RH WIND       PRES   REMARKS
BRADFORD       LGT RAIN  55  51  86 VRB5      30.06S
DUBOIS         PTSUNNY   60  53  77 SW7       30.06S
CLEARFIELD     CLOUDY    59  53  80 SW6       30.08S
JOHNSTOWN      PTSUNNY   58  49  72 SW8       30.09S
ALTOONA        SUNNY     63  53  70 SW6       30.09S
STATE COLLEGE  SUNNY     63  54  72 SW8       30.08R
WILLIAMSPORT   MOSUNNY   60  54  80 CALM      30.06S
SELINSGROVE    SUNNY     66  56  70 CALM      30.07S
FT INDIANTOWN  SUNNY     67  59  75 SW6       30.07S
CAPITAL CITY   SUNNY     66  55  67 VRB5      30.07F
HARRISBURG     SUNNY     67  55  65 NW6       30.06F
YORK           SUNNY     67  55  65 W3        30.07S
$$

PAZ038>040-043-044-047-048-054-055-060>062-067>071-301500-
EASTERN PENNSYLVANIA

CITY           SKY/WX    TMP DP  RH WIND       PRES   REMARKS
SCRANTON       SUNNY     65  53  65 VRB3      30.06S
MOUNT POCONO   SUNNY     63  52  67 SW5       30.08S
ALLENTOWN      SUNNY     67  54  63 CALM      30.06S
QUAKERTOWN*    SUNNY     68  55  64 CALM      30.07S
READING        SUNNY     69  56  62 NW5       30.06S
LANCASTER      SUNNY     66  56  70 W5        30.07S
COATESVILLE    SUNNY     66  55  68 NW3       30.08S
POTTSTOWN      SUNNY     68  55  63 NW3       30.08S
BLUE BELL      SUNNY     70  54  56 CALM      30.06R
DOYLESTOWN     SUNNY     69  53  56 CALM      30.06R
WILLOW GROVE   NOT AVBL
NORTH PHILA    SUNNY     74  52  46 N5        30.07R
PHILADELPHIA   SUNNY     73  52  47 CALM      30.06S
$$


USA.gov is the U.S. government's official web portal to all federal, state and local government web resources and services.